User: anonymous   Login
Location: Monroe
(41.9160°N, 83.3980°W)
Time: 13:43:54
(UTC-05:00)
Language:

deb Explorer IX - Orbit

View from above orbital plane
View from above orbital plane
View from above satellite
View from above satellite

Ground track
Ground track

The orbit data is extracted from the following two-line orbital elements,

1 00085U 61004C   15061.55014998  .00036137  00000-0  86334-2 0  9994
2 00085 038.7751 115.1163 0428746 282.6573 072.6569 14.09337458656600
Epoch (UTC): 02 March 2015 13:12:12
Eccentricity: 0.0428746
inclination: 38.7751°
perigee height: 551 km
apogee height: 1172 km
right ascension of ascending node: 115.1163°
argument of perigee: 282.6573°
revolutions per day: 14.09337458
mean anomaly at epoch: 72.6569°
orbit number at epoch: 65660

The dashed part of the orbit path shows where the satellite is in the earth's shadow,  

DLR